Madisonville, KY

9:54 PM CDT on October 18, 2017 (GMT -0500)
Madisonville

Weather History for K2I0 - February, 2014

Change the Weather History Date:

Sunday, February 16, 2014

  Actual Average (KOWB) Record (KOWB)
Temperature  
Mean Temperature 33 °F -  
Max Temperature 39 °F 48 °F 71 °F (2011)
Min Temperature 27 °F 28 °F -2 °F (1958)
Degree Days  
Heating Degree Days 32    
Moisture  
Dew Point 27 °F    
Average Humidity 80    
Maximum Humidity 89    
Minimum Humidity 68    
Precipitation  
Precipitation 0.00 in - - ()
Sea Level Pressure  
Sea Level Pressure 30.15 in    
Wind  
Wind Speed 4 mph (North)    
Max Wind Speed 17 mph    
Max Gust Speed 29 mph    
Visibility 9 miles    
Events      
Averages and records for this station are not official NWS values.
T = Trace of Precipitation, MM = Missing Value Source: NWS Daily Summary

Daily Weather History Graph

Daily Weather History Graph

Search for Another Location

Airport or City:

Trip Planner

Search our weather history database for the weather conditions in past years. The results will help you decide how hot, cold, wet, or windy it might be!

Date:

Astronomy

Feb. 16, 2014 Rise Set
Actual Time 6:37 AM CST 5:30 PM CST
Civil Twilight 6:10 AM CST 5:57 PM CST
Nautical Twilight 5:40 AM CST 6:27 PM CST
Astronomical Twilight 5:10 AM CST 6:57 PM CST
Moon 7:23 PM CST (2/16) 7:09 AM CST (2/16)
Length of Visible Light 11h 46m
Length of Day
10h 52m
Full, 97% of the Moon is Illuminated
Feb 16
Full
Feb 22
Last Quarter
Mar 1
New
Mar 8
First Quarter
Mar 16
Full

Hourly Weather History & Observations

Time (CST) Temp. Windchill Dew Point Humidity Pressure Visibility Wind Dir Wind Speed Gust Speed Precip Events Conditions
12:15 AM 31.8 °F - 25.9 °F 79% 30.03 in 10.0 mi Calm Calm - N/A   Overcast
12:35 AM 31.8 °F 28.5 °F 25.7 °F 78% 30.02 in 10.0 mi SSW 3.5 mph - N/A   Overcast
12:55 AM 31.6 °F 28.3 °F 25.7 °F 79% 30.03 in 10.0 mi SSW 3.5 mph - N/A   Overcast
1:15 AM 32.0 °F 27.5 °F 25.9 °F 78% 30.03 in 10.0 mi WSW 4.6 mph - N/A   Overcast
1:35 AM 31.3 °F 27.9 °F 26.8 °F 83% 30.03 in 10.0 mi WSW 3.5 mph - N/A   Overcast
1:55 AM 31.5 °F - 26.6 °F 82% 30.02 in 10.0 mi Calm Calm - N/A   Overcast
2:15 AM 31.3 °F - 25.7 °F 80% 30.02 in 10.0 mi Calm Calm - N/A   Scattered Clouds
2:35 AM 30.6 °F - 25.3 °F 81% 30.02 in 10.0 mi Calm Calm - N/A   Clear
2:55 AM 29.8 °F - 25.7 °F 85% 30.02 in 10.0 mi Calm Calm - N/A   Clear
3:15 AM 29.1 °F 25.4 °F 25.0 °F 85% 30.02 in 10.0 mi SSW 3.5 mph - N/A   Clear
3:35 AM 27.5 °F 22.2 °F 24.1 °F 87% 30.01 in 10.0 mi SW 4.6 mph - N/A   Clear
3:55 AM 28.4 °F - 24.1 °F 84% 30.01 in 10.0 mi Calm Calm - N/A   Clear
4:15 AM 29.5 °F - 24.4 °F 81% 30.01 in 10.0 mi Calm Calm - N/A   Clear
4:35 AM 29.7 °F - 24.3 °F 80% 30.01 in 10.0 mi Calm Calm - N/A   Clear
4:55 AM 29.5 °F 24.5 °F 23.9 °F 80% 30.02 in 10.0 mi WSW 4.6 mph - N/A   Clear
5:15 AM 29.1 °F 23.0 °F 24.3 °F 82% 30.02 in 10.0 mi West 5.8 mph - N/A   Clear
5:35 AM 30.2 °F 23.4 °F 24.4 °F 79% 30.03 in 10.0 mi West 6.9 mph - N/A   Clear
5:55 AM 30.2 °F 23.4 °F 24.6 °F 80% 30.03 in 10.0 mi West 6.9 mph - N/A   Clear
6:15 AM 30.0 °F 24.1 °F 24.6 °F 80% 30.04 in 10.0 mi West 5.8 mph - N/A   Clear
6:35 AM 27.1 °F 21.8 °F 23.0 °F 84% 30.04 in 10.0 mi West 4.6 mph - N/A   Clear
6:55 AM 29.8 °F 26.3 °F 24.8 °F 81% 30.05 in 10.0 mi West 3.5 mph - N/A   Clear
7:15 AM 30.2 °F 26.7 °F 25.0 °F 81% 30.06 in 10.0 mi WNW 3.5 mph - N/A   Clear
7:35 AM 31.8 °F - 26.1 °F 79% 30.07 in 10.0 mi Calm Calm - N/A   Clear
7:55 AM 32.4 °F 26.9 °F 27.0 °F 80% 30.08 in 10.0 mi NW 5.8 mph - N/A   Clear
8:15 AM 34.7 °F 27.5 °F 27.7 °F 76% 30.08 in 10.0 mi NNW 9.2 mph - N/A   Clear
8:35 AM 35.1 °F 29.3 °F 28.0 °F 76% 30.09 in 10.0 mi NNW 6.9 mph - N/A   Clear
8:55 AM 36.1 °F 26.2 °F 27.9 °F 72% 30.11 in 10.0 mi NNW 17.3 mph 28.8 mph N/A   Clear
9:15 AM 36.1 °F 28.2 °F 27.3 °F 70% 30.12 in 10.0 mi North 11.5 mph - N/A   Clear
9:35 AM 36.5 °F 28.7 °F 27.9 °F 71% 30.14 in 10.0 mi North 11.5 mph - N/A   Clear
9:55 AM 36.1 °F 29.3 °F 28.2 °F 73% 30.15 in 10.0 mi North 9.2 mph - N/A   Clear
10:15 AM 36.1 °F 33.5 °F 28.0 °F 72% 30.16 in 10.0 mi North 3.5 mph - N/A   Clear
10:35 AM 36.5 °F 29.2 °F 27.9 °F 71% 30.17 in 10.0 mi North 10.4 mph - N/A   Clear
10:55 AM 36.5 °F 30.3 °F 28.6 °F 73% 30.17 in 10.0 mi North 8.1 mph - N/A   Clear
11:15 AM 36.5 °F 31.0 °F 28.8 °F 74% 30.18 in 10.0 mi North 6.9 mph - N/A   Clear
11:35 AM 37.4 °F 33.8 °F 28.4 °F 70% 30.18 in 10.0 mi NNE 4.6 mph - N/A   Clear
11:55 AM 38.1 °F 34.6 °F 28.4 °F 68% 30.18 in 10.0 mi NNE 4.6 mph - N/A   Clear
12:15 PM 38.5 °F 33.4 °F 29.1 °F 69% 30.17 in 10.0 mi NNE 6.9 mph - N/A   Clear
12:35 PM 38.8 °F 33.8 °F 29.5 °F 69% 30.17 in 10.0 mi NE 6.9 mph - N/A   Mostly Cloudy
12:55 PM 39.2 °F 33.0 °F 29.3 °F 68% 30.17 in 10.0 mi NNE 9.2 mph - N/A   Mostly Cloudy
1:15 PM 38.3 °F 30.5 °F 30.2 °F 73% 30.16 in 10.0 mi North 12.7 mph 16.1 mph N/A   Mostly Cloudy
1:35 PM 37.8 °F 31.3 °F 30.7 °F 76% 30.17 in 10.0 mi North 9.2 mph - N/A   Overcast
1:55 PM 37.8 °F 30.7 °F 30.0 °F 74% 30.19 in 10.0 mi North 10.4 mph - N/A   Overcast
2:15 PM 37.0 °F 31.0 °F 29.7 °F 75% 30.19 in 10.0 mi NNW 8.1 mph - N/A   Overcast
2:35 PM 36.3 °F 30.1 °F 29.5 °F 76% 30.19 in 10.0 mi NNW 8.1 mph - N/A   Overcast
2:55 PM 35.8 °F 30.1 °F 29.7 °F 78% 30.20 in 10.0 mi NNW 6.9 mph - N/A   Overcast
3:15 PM 35.4 °F 29.0 °F 29.3 °F 78% 30.21 in 7.0 mi North 8.1 mph - N/A   Overcast
3:35 PM 35.6 °F 31.7 °F 28.9 °F 77% 30.21 in 10.0 mi NNW 4.6 mph - N/A   Overcast
3:55 PM 34.7 °F 28.1 °F 29.7 °F 82% 30.22 in 10.0 mi North 8.1 mph - N/A   Overcast
4:15 PM 34.3 °F 28.4 °F 29.5 °F 82% 30.22 in 7.0 mi North 6.9 mph - N/A   Overcast
4:35 PM 34.0 °F 28.0 °F 29.3 °F 83% 30.23 in 10.0 mi North 6.9 mph - N/A   Overcast
4:55 PM 34.0 °F 27.2 °F 28.8 °F 81% 30.23 in 10.0 mi North 8.1 mph - N/A   Overcast
5:15 PM 33.8 °F 28.6 °F 28.4 °F 81% 30.23 in 10.0 mi North 5.8 mph - N/A   Overcast
5:35 PM 33.3 °F 27.1 °F 28.4 °F 82% 30.24 in 10.0 mi NNE 6.9 mph - N/A   Overcast
5:55 PM 33.1 °F 27.7 °F 28.4 °F 83% 30.24 in 10.0 mi NNE 5.8 mph - N/A   Overcast
6:15 PM 32.7 °F 29.6 °F 28.0 °F 83% 30.24 in 10.0 mi NNE 3.5 mph - N/A   Mostly Cloudy
6:35 PM 31.8 °F 27.3 °F 28.6 °F 88% 30.25 in 7.0 mi North 4.6 mph - N/A   Clear
6:55 PM 31.3 °F 26.6 °F 28.4 °F 89% 30.26 in 7.0 mi North 4.6 mph - N/A   Clear
7:15 PM 30.9 °F 25.2 °F 27.7 °F 88% 30.26 in 7.0 mi NNE 5.8 mph - N/A   Clear
7:35 PM 31.1 °F 24.5 °F 26.6 °F 83% 30.25 in 7.0 mi NNE 6.9 mph - N/A   Clear
7:55 PM 30.7 °F 24.1 °F 26.4 °F 84% 30.24 in 7.0 mi NE 6.9 mph - N/A   Clear
8:15 PM 30.2 °F 26.7 °F 26.4 °F 86% 30.25 in 7.0 mi NNE 3.5 mph - N/A   Clear
8:35 PM 29.5 °F 23.4 °F 26.4 °F 88% 30.26 in 7.0 mi NNE 5.8 mph - N/A   Clear
8:55 PM 29.3 °F 24.3 °F 26.4 °F 89% 30.26 in 7.0 mi NE 4.6 mph - N/A   Clear
9:15 PM 29.1 °F 23.0 °F 26.1 °F 88% 30.25 in 7.0 mi NE 5.8 mph - N/A   Clear
9:35 PM 28.9 °F 23.9 °F 25.7 °F 88% 30.25 in 7.0 mi NE 4.6 mph - N/A   Clear
9:55 PM 28.8 °F 22.6 °F 25.3 °F 87% 30.25 in 7.0 mi NE 5.8 mph - N/A   Clear
10:15 PM 28.8 °F 22.6 °F 24.8 °F 85% 30.24 in 7.0 mi NE 5.8 mph - N/A   Clear
10:35 PM 28.4 °F 22.2 °F 24.8 °F 86% 30.23 in 7.0 mi NE 5.8 mph - N/A   Clear
10:55 PM 27.7 °F 21.3 °F 24.6 °F 88% 30.22 in 7.0 mi NE 5.8 mph - N/A   Clear
11:15 PM 27.3 °F 20.9 °F 24.4 °F 89% 30.22 in 7.0 mi ENE 5.8 mph - N/A   Clear
11:35 PM 27.5 °F 23.6 °F 24.4 °F 88% 30.22 in 7.0 mi NE 3.5 mph - N/A   Clear
11:55 PM 27.5 °F 23.6 °F 24.6 °F 89% 30.22 in 7.0 mi NE 3.5 mph - N/A   Clear